Location: Dal�� Lhota
(48.7500°N, 14.0167°E)
Time: 06:59:26
(UTC+00:00)

Courier 1B Rocket - Pass Details

Date: 31 July 2021
Orbit: 920 x 1202 km, 28.3° (Epoch: 27 September)

Event Time Altitude Azimuth Distance (km) Brightness Sun altitude
Rises 02:18:44 0° 223° (SW) 3,666 - -11.0°
Exits shadow 02:23:01 - 196° (SSW) 2,783 6.9 -10.5°
Reaches altitude 10° 02:24:20 10° 185° (S) 2,654 6.8 -10.4°
Maximum altitude 02:25:19 10° 176° (S) 2,618 6.9 -10.2°
Drops below altitude 10° 02:26:19 10° 167° (SSE) 2,637 7.0 -10.1°
Sets 02:31:45 0° 128° (SE) 3,550 8.1 -9.5°
